Regional Weather Roundup
Issued by NWS Kansas City/Pleasant Hill, MO

Home | Current Version | Previous Version | Text Only | Print | Product List | Glossary On
Versions: 1 2 3 4 5 6 7 8 9 10 11 12 13 14 15 16 17 18 19 20 21 22 23 24 25 26 27 28 29 30 31 32 33 34 35 36 37 38 39 40 41 42 43 44 45 46 47 48 49 50
000
ASUS43 KEAX 251711
RWREAX

WEATHER ROUNDUP FOR EASTERN KANSAS AND NORTHWEST MISSOURI
NATIONAL WEATHER SERVICE KANSAS CITY/PLEASANT HILL MO
1200 PM CDT FRI JUL 25 2014

KSZ040-057-103>105-MOZ028-029-037-043-251800-
...KANSAS CITY METROPOLITAN AREA...

CITY           SKY/WX    TMP DP  RH WIND       PRES   REMARKS
K.C. INTL      PTSUNNY   87  73  62 S18G26    29.84F HX  94
K.C. DOWNTOWN  MOSUNNY   91  71  51 SW18G28   29.83F HX  97
LEES SUMMIT    MOSUNNY   87  72  60 S15G23    29.87F HX  93
OLATHE - IXD   SUNNY     90  70  51 S23G31    29.87F HX  95
OLATHE - OJC   SUNNY     87  71  58 S17G25    29.86F HX  93
LAWRENCE       MOSUNNY   93  71  48 S17G24    29.83F HX 100

$$

MOZ001>008-011>017-020>025-030>033-038>040-044>046-053-054-251800-
...NORTHERN AND CENTRAL MISSOURI...

CITY           SKY/WX    TMP DP  RH WIND       PRES   REMARKS
ST. JOSEPH     MOSUNNY   85  74  69 S9        29.83S HX  92
MOSBY          PTSUNNY   86  70  58 S7G17     29.85S HX  90
WARRENSBURG    PTSUNNY   86  72  62 S12G18    29.88S HX  92
WHITEMAN AFB   PTSUNNY   86  63  45 SW22G29   29.89S
CLINTON        MOSUNNY   84  73  70 SW15G23   29.91F HX  91
SEDALIA        PTSUNNY   85  71  63 S14       29.93S HX  90
WARSAW         NOT AVBL
MARSHALL       CLOUDY    84  75  74 S8        29.92R HAZE    HX  92
CHILLICOTHE      N/A     79  68  69 SE7       29.90F
KIRKSVILLE     CLOUDY    65  62  90 E12       30.01R

$$

MOZ041-047>049-056>058-063>065-088>090-097-251800-
...EASTERN AND SOUTHERN MISSOURI...

CITY           SKY/WX    TMP DP  RH WIND       PRES   REMARKS
ST. LOUIS INTL CLOUDY    74  57  55 S7        30.05S
SPIRIT OF STL  CLOUDY    71  60  68 S6        30.03S
COLUMBIA       PTSUNNY   78  65  63 S13       29.97S
JEFFERSON CITY MOSUNNY   79  64  60 SE10      29.96F
MEXICO         CLOUDY    68  66  94 E7        30.01R
HANNIBAL       CLOUDY    64  61  88 SE5       30.02R
ROLLA          MOSUNNY   81  61  50 S14       30.01R
LEBANON        SUNNY     84  68  58 S10       30.00F
OSAGE BEACH    SUNNY     84  66  54 S9        29.97R
SPRINGFIELD    MOSUNNY   83  70  64 S16       29.98F
BRANSON        MOSUNNY   90  68  48 S5        30.04F HX  93
NEVADA         SUNNY     84  72  65 S15G25    29.94F
JOPLIN         SUNNY     87  70  56 S18       29.97F HX  92
WEST PLAINS    CLOUDY    77  62  59 S9        30.06F

$$

IAZ060-094-KSZ022-034>040-054-083-096-NEZ052-066-093-251800-
...KANSAS...SOUTHEAST NEBRASKA AND IOWA...

CITY           SKY/WX    TMP DP  RH WIND       PRES   REMARKS
TOPEKA         MOSUNNY   91  70  49 S14       29.82F HX  96
MANHATTAN      SUNNY     96  67  38 SW23G31   29.78F HX 100
EMPORIA        MOSUNNY   92  69  47 SW26G35   29.86F HX  97
CHANUTE        SUNNY     87  72  60 S18G28    29.91F HX  93
WICHITA        MOSUNNY   93  68  43 S20G30    29.87F HX  97
OMAHA          SUNNY     84  69  60 SE18      29.75F
LINCOLN        SUNNY     92  69  47 SW10      29.75F HX  97
FALLS CITY     MOSUNNY   93  72  50 S17       29.78F HX 101
LAMONI         PTSUNNY   72  62  71 SE10G22   29.89F
DES MOINES     CLOUDY    69  61  75 S21G31    29.87F

$$




USA.gov is the U.S. government's official web portal to all federal, state and local government web resources and services.